[[{"header":{"parameterUnit":"m.s-1","parameterCategory":1,"la1":30.2991,"la2":30.254,"lo1":-89.0895,"lo2":-89.0444,"dy":0.0017,"dx":0.0017,"nx":28,"ny":28,"refTime":"2024-04-20T03:00:00:Z","depth":0,"parameterNumber":2,"parameterNumberName":"U-component_of_WINDS"},"data":[0,0,0,0,0,0,0,0,0,0,0,0,0,0,0,0,0,0,0,0,0,0,0,0,0,0,0,0,0,0,0,0,0,0,0,0,0,0,0,0,0,0,0,0,0,0,0,0,0,0,0,0,0,0,0,0,0,0,-0.3422,-0.3423,0,-0.3474,-0.3474,-0.3475,-0.3462,-0.3461,-0.346,-0.346,-0.3515,-0.3517,-0.3519,0,0,0,0,0,0,0,0,0,0,0,0,0,-0.3314,-0.3316,-0.3422,-0.3423,-0.3423,-0.3474,-0.3474,-0.3475,-0.3463,-0.3461,-0.346,-0.3459,-0.3514,-0.3517,-0.352,0,0,0,0,0,0,0,0,0,0,0,0,0,-0.3363,-0.3317,-0.3422,-0.3423,-0.3424,-0.3474,-0.3474,-0.3475,-0.3463,-0.3461,-0.346,-0.3458,-0.3513,-0.3516,-0.352,-0.3572,0,0,-0.3531,-0.3533,0,0,0,0,0,0,0,0,-0.336,-0.3367,-0.3422,-0.3423,-0.3424,-0.346,-0.3456,-0.3508,-0.3463,-0.3448,-0.3459,-0.3458,-0.3498,-0.3503,-0.3516,-0.3575,-0.3577,-0.3531,-0.3533,-0.3535,-0.3536,0,0,0,0,0,0,0,-0.3357,-0.3365,-0.3443,-0.3423,-0.3424,-0.3422,-0.3427,-0.3466,-0.3481,-0.3449,-0.3449,-0.3455,-0.3498,-0.3512,-0.3517,-0.3578,-0.3531,-0.3534,-0.3537,-0.3538,-0.3682,-0.3684,0,0,0,0,0,0,-0.3353,-0.3362,-0.3441,-0.3444,-0.3388,-0.3425,-0.3431,-0.345,-0.348,-0.3484,-0.3456,-0.3454,-0.3507,-0.3513,-0.3519,-0.3582,-0.3535,-0.3538,-0.354,-0.3681,-0.3683,-0.3684,0,0,0,0,0,0,-0.335,-0.336,-0.3439,-0.3403,-0.3413,-0.3428,-0.345,-0.3452,-0.3466,-0.3485,-0.3488,-0.3468,-0.3506,-0.3514,-0.3559,-0.3584,-0.354,-0.3543,-0.3679,-0.3681,-0.3683,-0.3709,0,0,0,0,0,0,-0.3347,-0.3359,-0.3379,-0.3403,-0.3415,-0.3478,-0.3452,-0.3454,-0.3472,-0.347,-0.3497,-0.35,-0.3505,-0.3553,-0.3562,-0.3588,-0.3546,-0.3676,-0.368,-0.3683,-0.3706,-0.3712,-0.3717,0,0,0,0,0,-0.3343,-0.3385,-0.338,-0.339,-0.344,-0.3479,-0.3486,-0.349,-0.3474,-0.3494,-0.3507,-0.3499,-0.3579,-0.3558,-0.3568,-0.3595,-0.3675,-0.3679,-0.3682,-0.3703,-0.3711,-0.3717,0,0,0,0,0,0,-0.3364,-0.3388,-0.3383,-0.3433,-0.3454,-0.3477,-0.3503,-0.3498,-0.3525,-0.3522,-0.3526,-0.3533,-0.3579,-0.3591,-0.3567,-0.3647,-0.3625,-0.3631,-0.3637,-0.3644,-0.365,-0.3646,-0.3549,0,0,0,0,0,-0.3374,-0.3403,-0.3423,-0.3466,-0.3476,-0.3488,-0.3505,-0.3506,-0.3529,-0.3538,-0.3553,-0.3576,-0.3606,-0.3626,-0.3654,-0.3707,-0.3713,-0.373,-0.3736,-0.374,-0.3746,-0.3774,-0.3782,-0.3697,-0.3697,-0.3697,0,0,-0.3396,-0.3412,-0.3431,-0.347,-0.3486,-0.3517,-0.3495,-0.3529,-0.3552,-0.3543,-0.3587,-0.3599,-0.3624,-0.3673,-0.3695,-0.3685,-0.377,-0.3745,-0.3749,-0.3752,-0.3779,-0.3787,-0.3794,-0.3699,-0.3699,-0.3698,0,0,-0.3451,-0.3467,-0.3503,-0.352,-0.3544,-0.3552,-0.356,-0.3584,-0.3591,-0.3634,-0.3628,-0.3656,-0.3707,-0.3725,-0.3741,-0.3802,-0.3796,-0.3811,-0.3841,-0.3868,-0.3875,-0.3881,-0.3903,-0.3911,-0.3816,-0.3816,-0.3816,0,-0.3475,-0.3521,-0.3523,-0.3557,-0.3575,-0.3566,-0.3604,-0.362,-0.3653,-0.3665,-0.3653,-0.3717,-0.3733,-0.3786,-0.3801,-0.3814,-0.3824,-0.3809,-0.3874,-0.388,-0.3885,-0.3906,-0.3914,-0.3818,-0.3818,-0.3817,-0.3817,0,-0.355,-0.3581,-0.3608,-0.3639,-0.3659,-0.3695,-0.3703,-0.3723,-0.3722,-0.3731,-0.3775,-0.3794,-0.3826,-0.3838,-0.3838,-0.3891,-0.3884,-0.3872,-0.385,-0.3895,-0.3915,-0.3923,-0.382,-0.382,-0.3819,-0.3819,0,0,-0.3621,-0.3651,-0.3661,-0.3675,-0.3701,-0.3726,-0.3761,-0.3791,-0.3808,-0.3831,-0.3861,-0.3904,-0.3893,-0.3911,-0.3913,-0.3937,-0.3984,-0.3923,-0.3923,-0.3934,-0.4043,-0.4052,-0.4061,-0.3979,-0.3981,-0.3982,-0.4041,0,-0.3679,-0.374,-0.3742,-0.3798,-0.3828,-0.3819,-0.385,-0.3869,-0.3877,-0.3904,-0.3913,-0.3944,-0.3927,-0.3938,-0.3961,-0.3973,-0.4006,-0.3969,-0.4008,-0.4009,-0.4002,-0.4071,-0.4081,-0.4136,-0.4049,-0.405,-0.4051,0,-0.3755,-0.3779,-0.3838,-0.3858,-0.3871,-0.3898,-0.3926,-0.3951,-0.3972,-0.3977,-0.3996,-0.3994,-0.403,-0.4005,-0.4055,-0.403,-0.4046,-0.4053,-0.4056,-0.406,-0.4033,-0.4078,-0.4153,-0.4162,-0.4063,-0.4062,-0.4061,0,-0.3802,-0.3849,-0.389,-0.3901,-0.3927,-0.3946,-0.3957,-0.3977,-0.3995,-0.4019,-0.4031,-0.4059,-0.4075,-0.4097,-0.4102,-0.4084,-0.4152,-0.4128,-0.4157,-0.4157,-0.4173,-0.4172,-0.4252,-0.4182,-0.4182,-0.4181,-0.4181,0,-0.3867,-0.3903,-0.3911,-0.3936,-0.3976,-0.3978,-0.4018,-0.4028,-0.4046,-0.4073,-0.4067,-0.4093,-0.4098,-0.4125,-0.413,-0.417,-0.4177,-0.4182,-0.4183,-0.4183,-0.4183,-0.4194,-0.4191,-0.4184,-0.4183,-0.4183,-0.4182,0,-0.3926,-0.3933,-0.3977,-0.3996,-0.4002,-0.4031,-0.4048,-0.4072,-0.4079,-0.4114,-0.4122,-0.4133,-0.4165,-0.4172,-0.4209,-0.4212,-0.426,-0.4257,-0.4253,-0.4253,-0.4281,-0.4279,-0.4372,-0.4385,-0.4306,-0.4306,-0.4307,0,-0.3968,-0.3995,-0.4017,-0.4035,-0.4047,-0.4075,-0.4093,-0.4096,-0.4114,-0.414,-0.4161,-0.4192,-0.4216,-0.4266,-0.4278,-0.4307,-0.4305,-0.4335,-0.4309,-0.4308,-0.4306,-0.4304,-0.4307,-0.4341,-0.4342,-0.4342,-0.4343,0,-0.4041,-0.4042,-0.4068,-0.4094,-0.4115,-0.4137,-0.4157,-0.4171,-0.4177,-0.4198,-0.423,-0.4248,-0.4286,-0.4316,-0.4344,-0.4356,-0.4351,-0.4351,-0.4359,-0.436,-0.4356,-0.4359,-0.4267,-0.4349,-0.4348,-0.4348,-0.4348,-0.4347,-0.4093,-0.4117,-0.4136,-0.4164,-0.4179,-0.4198,-0.4222,-0.4231,-0.4257,-0.4287,-0.4287,-0.4321,-0.4341,-0.4378,-0.4392,-0.4418,-0.4409,-0.4421,-0.4424,-0.4427,-0.443,-0.4351,-0.4424,-0.4423,-0.4423,-0.4423,-0.4423,0,-0.4166,-0.4177,-0.4203,-0.4231,-0.4254,-0.4245,-0.4266,-0.4286,-0.4316,-0.4334,-0.4358,-0.4394,-0.4423,-0.4436,-0.4465,-0.4484,-0.4482,-0.4491,-0.449,-0.4493,-0.4437,-0.4427,-0.4492,-0.4492,-0.4492,-0.4492,-0.4492,-0.4492,-0.4207,-0.4247,-0.425,-0.4297,-0.4308,-0.4341,-0.4354,-0.4371,-0.4386,-0.4426,-0.445,-0.4458,-0.4474,-0.4504,-0.453,-0.4533,-0.4544,-0.4555,-0.4557,-0.4504,-0.4497,-0.449,-0.4481,-0.4557,-0.4557,-0.4611,-0.4611,-0.4612]},{"header":{"parameterUnit":"m.s-1","parameterCategory":1,"la1":30.2991,"la2":30.254,"lo1":-89.0895,"lo2":-89.0444,"dy":0.0017,"dx":0.0017,"nx":28,"ny":28,"refTime":"2024-04-20T03:00:00:Z","depth":0,"parameterNumber":3,"parameterNumberName":"V-component_of_WINDS"},"data":[0,0,0,0,0,0,0,0,0,0,0,0,0,0,0,0,0,0,0,0,0,0,0,0,0,0,0,0,0,0,0,0,0,0,0,0,0,0,0,0,0,0,0,0,0,0,0,0,0,0,0,0,0,0,0,0,0,0,-6.5867,-6.5868,0,-6.5977,-6.5978,-6.5979,-6.5908,-6.5904,-6.5901,-6.5898,-6.6005,-6.601,-6.6016,0,0,0,0,0,0,0,0,0,0,0,0,0,-6.5589,-6.5595,-6.5867,-6.5868,-6.587,-6.5977,-6.5978,-6.598,-6.5908,-6.5904,-6.59,-6.5896,-6.6003,-6.601,-6.6017,0,0,0,0,0,0,0,0,0,0,0,0,0,-6.5705,-6.5596,-6.5867,-6.5847,-6.5846,-6.5976,-6.5978,-6.598,-6.5909,-6.5904,-6.5899,-6.5894,-6.6,-6.6009,-6.6018,-6.6171,0,0,-6.6045,-6.6049,0,0,0,0,0,0,0,0,-6.5699,-6.5716,-6.5849,-6.5849,-6.5848,-6.5924,-6.5919,-6.6044,-6.591,-6.5885,-6.5898,-6.5892,-6.5981,-6.5991,-6.6023,-6.6176,-6.6181,-6.6046,-6.6051,-6.6055,-6.6057,0,0,0,0,0,0,0,-6.5691,-6.571,-6.591,-6.585,-6.585,-6.5831,-6.5842,-6.5943,-6.5959,-6.5887,-6.5882,-6.5896,-6.598,-6.6014,-6.6025,-6.6182,-6.6045,-6.6053,-6.6059,-6.6062,-6.6467,-6.6472,0,0,0,0,0,0,-6.5685,-6.5704,-6.5907,-6.5913,-6.576,-6.584,-6.5852,-6.5904,-6.5958,-6.5962,-6.59,-6.5892,-6.6002,-6.6014,-6.6028,-6.6211,-6.6055,-6.6063,-6.6068,-6.6461,-6.6468,-6.6474,0,0,0,0,0,0,-6.568,-6.5704,-6.5902,-6.5808,-6.5831,-6.585,-6.5909,-6.5909,-6.5943,-6.5968,-6.597,-6.5933,-6.5998,-6.6016,-6.6136,-6.6214,-6.6067,-6.6075,-6.6455,-6.6463,-6.6471,-6.6579,0,0,0,0,0,0,-6.5672,-6.5702,-6.5763,-6.581,-6.5837,-6.6011,-6.5914,-6.5915,-6.5959,-6.595,-6.5999,-6.6002,-6.5996,-6.6124,-6.6145,-6.6223,-6.6082,-6.6448,-6.6459,-6.6468,-6.6569,-6.659,-6.6608,0,0,0,0,0,-6.5662,-6.5787,-6.5766,-6.5791,-6.5913,-6.6016,-6.6031,-6.6022,-6.5966,-6.6025,-6.6042,-6.6001,-6.6202,-6.6137,-6.616,-6.6242,-6.6443,-6.6456,-6.6468,-6.656,-6.6586,-6.6608,0,0,0,0,0,0,-6.5747,-6.5793,-6.577,-6.5914,-6.5962,-6.6003,-6.6078,-6.605,-6.6113,-6.6102,-6.6086,-6.6098,-6.6224,-6.6245,-6.6172,-6.6394,-6.6313,-6.6331,-6.6375,-6.64,-6.642,-6.6412,-6.6089,0,0,0,0,0,-6.5783,-6.5865,-6.59,-6.6024,-6.6049,-6.606,-6.6104,-6.6094,-6.6141,-6.6161,-6.6185,-6.6232,-6.6305,-6.6354,-6.6423,-6.6571,-6.658,-6.6639,-6.6659,-6.6675,-6.669,-6.677,-6.6796,-6.6514,-6.6514,-6.6514,0,0,-6.5857,-6.5892,-6.5944,-6.6042,-6.6077,-6.6161,-6.6077,-6.6169,-6.623,-6.6174,-6.629,-6.631,-6.636,-6.6496,-6.6557,-6.6517,-6.677,-6.6691,-6.6703,-6.671,-6.6785,-6.6812,-6.6836,-6.6522,-6.6521,-6.6519,0,0,-6.6034,-6.607,-6.6177,-6.6215,-6.6271,-6.6277,-6.6303,-6.6349,-6.6361,-6.6478,-6.6437,-6.6509,-6.6636,-6.6673,-6.6709,-6.6901,-6.6866,-6.6924,-6.7027,-6.7105,-6.7127,-6.7146,-6.7215,-6.7239,-6.6939,-6.6939,-6.694,0,-6.6119,-6.6245,-6.6235,-6.6331,-6.6374,-6.6329,-6.6437,-6.6473,-6.6548,-6.6578,-6.6533,-6.6692,-6.6722,-6.6866,-6.6913,-6.6943,-6.6971,-6.6918,-6.7125,-6.7144,-6.7162,-6.7227,-6.7253,-6.6946,-6.6945,-6.6945,-6.6944,0,-6.6346,-6.6434,-6.6513,-6.6589,-6.6641,-6.6742,-6.6746,-6.68,-6.6784,-6.6795,-6.6914,-6.6949,-6.7025,-6.7058,-6.7043,-6.7199,-6.7173,-6.7127,-6.7046,-6.7196,-6.7257,-6.7282,-6.6956,-6.6953,-6.6951,-6.695,0,0,-6.658,-6.665,-6.6679,-6.6712,-6.6771,-6.6837,-6.6935,-6.7011,-6.7057,-6.711,-6.7191,-6.73,-6.7258,-6.7298,-6.7287,-6.7355,-6.7505,-6.7301,-6.7301,-6.7337,-6.7678,-6.7712,-6.7741,-6.7482,-6.7486,-6.749,-6.7674,0,-6.6761,-6.6935,-6.6929,-6.709,-6.717,-6.7129,-6.7214,-6.7258,-6.727,-6.7338,-6.7351,-6.7428,-6.7367,-6.7392,-6.7457,-6.7473,-6.7573,-6.7459,-6.7555,-6.7559,-6.7544,-6.7773,-6.7809,-6.7981,-6.7697,-6.7701,-6.7704,0,-6.6995,-6.7058,-6.7228,-6.7275,-6.7308,-6.7385,-6.7454,-6.752,-6.7568,-6.7572,-6.7619,-6.7596,-6.7694,-6.7611,-6.7744,-6.7667,-6.7705,-6.7719,-6.7725,-6.7733,-6.7641,-6.7787,-6.8036,-6.8061,-6.7741,-6.7738,-6.7736,0,-6.7149,-6.7275,-6.7394,-6.7424,-6.7481,-6.7536,-6.7562,-6.7605,-6.7651,-6.771,-6.7739,-6.7809,-6.7846,-6.79,-6.7896,-6.7836,-6.8031,-6.7947,-6.8036,-6.8036,-6.8078,-6.8076,-6.8336,-6.8104,-6.8104,-6.8103,-6.8103,0,-6.7351,-6.7457,-6.7463,-6.7536,-6.7652,-6.7644,-6.7758,-6.7778,-6.7817,-6.7891,-6.7859,-6.7929,-6.792,-6.799,-6.7987,-6.8097,-6.8114,-6.8119,-6.8117,-6.8122,-6.8122,-6.8147,-6.8135,-6.811,-6.8108,-6.8107,-6.8106,0,-6.7542,-6.7551,-6.7677,-6.7721,-6.7735,-6.7818,-6.7855,-6.7923,-6.7933,-6.8027,-6.8048,-6.8063,-6.8144,-6.8146,-6.8237,-6.8235,-6.837,-6.8354,-6.8354,-6.8351,-6.8439,-6.8431,-6.8725,-6.8763,-6.8506,-6.8509,-6.8511,0,-6.7671,-6.7751,-6.7805,-6.7853,-6.7883,-6.7961,-6.8008,-6.8002,-6.8052,-6.8114,-6.8174,-6.8252,-6.8313,-6.8443,-6.8461,-6.853,-6.8516,-6.8615,-6.8526,-6.8529,-6.8517,-6.8513,-6.852,-6.8632,-6.8634,-6.8637,-6.8639,0,-6.7898,-6.7899,-6.7969,-6.8042,-6.8099,-6.8155,-6.8207,-6.8248,-6.8248,-6.8305,-6.8388,-6.8437,-6.8531,-6.8608,-6.8676,-6.8699,-6.8669,-6.8667,-6.869,-6.8696,-6.8693,-6.8696,-6.8401,-6.866,-6.8658,-6.8656,-6.8655,-6.8654,-6.8062,-6.8131,-6.818,-6.8259,-6.8298,-6.8347,-6.8414,-6.8432,-6.8502,-6.858,-6.8571,-6.8664,-6.8708,-6.8796,-6.8826,-6.8897,-6.8862,-6.8897,-6.8906,-6.8915,-6.8924,-6.8682,-6.8909,-6.8908,-6.8908,-6.8907,-6.8907,0,-6.8287,-6.8317,-6.839,-6.8465,-6.8527,-6.8495,-6.855,-6.8604,-6.8686,-6.8732,-6.8794,-6.8889,-6.8963,-6.8987,-6.9059,-6.911,-6.9098,-6.9129,-6.9125,-6.9131,-6.8951,-6.8923,-6.9138,-6.9138,-6.9138,-6.9138,-6.9138,-6.9138,-6.8412,-6.8528,-6.8534,-6.8668,-6.8696,-6.8788,-6.8823,-6.8867,-6.8904,-6.9012,-6.9075,-6.909,-6.9127,-6.9201,-6.9267,-6.9272,-6.93,-6.9337,-6.9336,-6.9167,-6.9144,-6.9122,-6.9095,-6.9343,-6.9344,-6.951,-6.9512,-6.9513]}]]